Weather History for KBRD - April, 2013

Change the Weather History Date:

Saturday, April 20, 2013

  Actual Average Record
Temperature  
Mean Temperature 23 °F -  
Max Temperature 39 °F 58 °F 85 °F (1985)
Min Temperature 9 °F 33 °F 9 °F (2013)
Degree Days  
Heating Degree Days 42    
Moisture  
Dew Point 8 °F    
Average Humidity 49    
Maximum Humidity 84    
Minimum Humidity 23    
Precipitation  
Precipitation 0.00 in - - ()
Sea Level Pressure  
Sea Level Pressure 30.24 in    
Wind  
Wind Speed 4 mph (SSW)    
Max Wind Speed 13 mph    
Max Gust Speed 18 mph    
Visibility 10 miles    
Events      
Averages and records for this station are not official NWS values.
T = Trace of Precipitation, MM = Missing Value Source: NWS Daily Summary

Daily Weather History Graph

Daily Weather History Graph

Search for Another Location

Airport or City:

Trip Planner

Search our weather history database for the weather conditions in past years. The results will help you decide how hot, cold, wet, or windy it might be!

Date:

Astronomy

Apr. 20, 2013 Rise Set
Actual Time 6:20 AM CDT 8:11 PM CDT
Civil Twilight 5:48 AM CDT 8:43 PM CDT
Nautical Twilight 5:08 AM CDT 9:23 PM CDT
Astronomical Twilight 4:25 AM CDT 10:06 PM CDT
Moon 2:38 PM CDT (4/20) 3:29 AM CDT (4/20)
Length of Visible Light 14h 55m
Length of Day
13h 51m
Waxing Gibbous, 71% of the Moon is Illuminated
Apr 20
Waxing Gibbous
Apr 25
Full
May 2
Last Quarter
May 9
New
May 17
First Quarter

Hourly Weather History & Observations

Time (CDT) Temp. Windchill Dew Point Humidity Pressure Visibility Wind Dir Wind Speed Gust Speed Precip Events Conditions
12:53 AM 23.0 °F 15.8 °F 7.0 °F 50% 30.06 in 10.0 mi NNW 5.8 mph - N/A   Clear
1:53 AM 23.0 °F 18.4 °F 8.1 °F 53% 30.08 in 10.0 mi NW 3.5 mph - N/A   Clear
2:53 AM 18.0 °F 11.1 °F 8.1 °F 65% 30.10 in 10.0 mi NW 4.6 mph - N/A   Clear
3:53 AM 16.0 °F - 9.0 °F 74% 30.12 in 10.0 mi Calm Calm - N/A   Clear
4:53 AM 12.0 °F - 7.0 °F 80% 30.15 in 10.0 mi Calm Calm - N/A   Clear
5:53 AM 9.0 °F - 5.0 °F 84% 30.17 in 10.0 mi Calm Calm - N/A   Clear
6:53 AM 10.0 °F - 6.1 °F 84% 30.20 in 10.0 mi Calm Calm - N/A   Clear
7:53 AM 12.9 °F 3.8 °F 9.0 °F 84% 30.23 in 10.0 mi SW 5.8 mph - N/A   Clear
8:53 AM 21.9 °F - 12.0 °F 66% 30.25 in 10.0 mi Calm Calm - N/A   Clear
9:53 AM 26.1 °F - 9.0 °F 49% 30.27 in 10.0 mi Calm Calm - N/A   Clear
10:53 AM 30.9 °F - 8.1 °F 38% 30.27 in 10.0 mi Calm Calm - N/A   Clear
11:53 AM 33.1 °F 30.0 °F 6.1 °F 32% 30.27 in 10.0 mi South 3.5 mph - N/A   Clear
12:53 PM 34.0 °F 31.0 °F 1.0 °F 25% 30.28 in 10.0 mi SW 3.5 mph - N/A   Clear
1:53 PM 36.0 °F 33.3 °F 1.0 °F 23% 30.28 in 10.0 mi West 3.5 mph - N/A   Clear
2:53 PM 36.0 °F 29.0 °F 8.1 °F 31% 30.28 in 10.0 mi South 9.2 mph - N/A   Clear
3:53 PM 37.0 °F 28.9 °F 9.0 °F 31% 30.28 in 10.0 mi SSW 12.7 mph 18.4 mph N/A   Clear
4:53 PM 36.0 °F 28.0 °F 8.1 °F 31% 30.29 in 10.0 mi South 11.5 mph - N/A   Clear
5:53 PM 35.1 °F 27.9 °F 8.1 °F 33% 30.30 in 10.0 mi South 9.2 mph - N/A   Clear
6:53 PM 36.0 °F 30.3 °F 7.0 °F 30% 30.30 in 10.0 mi South 6.9 mph - N/A   Clear
7:53 PM 34.0 °F 26.6 °F 10.9 °F 38% 30.30 in 10.0 mi South 9.2 mph - N/A   Clear
8:53 PM 30.9 °F 26.2 °F 10.9 °F 43% 30.31 in 10.0 mi SSE 4.6 mph - N/A   Clear
9:53 PM 30.9 °F - 10.9 °F 43% 30.31 in 10.0 mi Calm Calm - N/A   Clear
10:53 PM 28.0 °F - 12.0 °F 51% 30.32 in 10.0 mi Calm Calm - N/A   Clear
11:53 PM 28.0 °F 24.2 °F 10.9 °F 49% 30.31 in 10.0 mi SSE 3.5 mph - N/A   Clear